GAP2782 RPLL-RPVP

Flight info

Callsign GAP2782
Flight time N/A
Altitude 36000
Route BUCAL2R BUCAL M646 NOMYO NOMYO2W
Aircraft A321/M-SDE3FGHIRWY/LB1

Departure

Time N/A
Airport Ninoy Aquino International Airport (RPLL)

Arrival

Time 2026-05-04 15:23
Airport Puerto Princesa International Airport / PAF Antonio Bautista Air Base (RPVP)
Time Latitude Longitude Altitude Speed Heading
2026-05-04 14:38 13.77967 120.69080 21386 ft 404 kts 210°
2026-05-04 14:39 13.75505 120.67595 21759 ft 406 kts 210°
2026-05-04 14:39 13.73063 120.66120 22117 ft 407 kts 210°
2026-05-04 14:39 13.70628 120.64651 22470 ft 409 kts 211°
2026-05-04 14:40 13.65688 120.61670 23138 ft 414 kts 211°
2026-05-04 14:40 13.63186 120.60161 23459 ft 416 kts 211°
2026-05-04 14:40 13.60674 120.58669 23762 ft 418 kts 209°
2026-05-04 14:40 13.58084 120.57308 24064 ft 420 kts 206°
2026-05-04 14:41 13.55409 120.56010 24375 ft 422 kts 205°
2026-05-04 14:41 13.52745 120.54731 24680 ft 424 kts 205°
2026-05-04 14:41 13.47486 120.52209 25979 ft 407 kts 206°
2026-05-04 14:42 13.42507 120.49818 27399 ft 385 kts 206°
2026-05-04 14:42 13.40088 120.48655 27841 ft 382 kts 206°
2026-05-04 14:42 13.37645 120.47478 28058 ft 386 kts 206°
2026-05-04 14:43 13.35205 120.46304 28178 ft 392 kts 206°
2026-05-04 14:43 13.32716 120.45106 28301 ft 398 kts 206°
2026-05-04 14:43 13.30196 120.43894 28421 ft 404 kts 206°
2026-05-04 14:43 13.27629 120.42660 28540 ft 409 kts 206°
2026-05-04 14:44 13.25036 120.41415 28657 ft 415 kts 206°
2026-05-04 14:44 13.22386 120.40140 28786 ft 421 kts 206°
2026-05-04 14:44 13.16987 120.37547 28880 ft 435 kts 206°
2026-05-04 14:45 13.11391 120.34862 28891 ft 449 kts 206°
2026-05-04 14:45 13.05681 120.32125 28892 ft 453 kts 206°
2026-05-04 14:46 12.99896 120.29353 28891 ft 468 kts 206°
2026-05-04 14:46 12.93905 120.26481 28890 ft 481 kts 206°
2026-05-04 14:47 12.87751 120.23533 28894 ft 492 kts 206°
2026-05-04 14:47 12.81479 120.20533 29247 ft 493 kts 205°
2026-05-04 14:48 12.78372 120.19046 29920 ft 482 kts 205°
2026-05-04 14:48 12.75387 120.17619 30614 ft 471 kts 205°
2026-05-04 14:48 12.72446 120.16215 31322 ft 460 kts 205°
2026-05-04 14:48 12.69596 120.14854 32033 ft 448 kts 205°
2026-05-04 14:49 12.66805 120.13519 32755 ft 437 kts 205°
2026-05-04 14:49 12.64087 120.12221 33545 ft 425 kts 205°
2026-05-04 14:49 12.61428 120.10951 34245 ft 416 kts 205°
2026-05-04 14:49 12.58826 120.09709 34579 ft 415 kts 205°
2026-05-04 14:50 12.56206 120.08459 34786 ft 416 kts 205°
2026-05-04 14:50 12.53538 120.07186 34975 ft 417 kts 205°
2026-05-04 14:50 12.50926 120.05939 35154 ft 419 kts 205°
2026-05-04 14:50 12.48247 120.04659 35301 ft 421 kts 205°
2026-05-04 14:51 12.45597 120.03393 35453 ft 423 kts 205°
2026-05-04 14:51 12.42942 120.02127 35628 ft 424 kts 205°
2026-05-04 14:51 12.40248 120.00843 35796 ft 425 kts 205°
2026-05-04 14:51 12.37544 119.99555 35887 ft 428 kts 205°
2026-05-04 14:52 12.32055 119.96941 35893 ft 437 kts 205°
2026-05-04 14:52 12.26450 119.94271 35889 ft 446 kts 205°
2026-05-04 14:53 12.20788 119.91575 35889 ft 449 kts 205°
2026-05-04 14:53 12.15081 119.88860 35888 ft 450 kts 205°
2026-05-04 14:54 12.09396 119.86156 35886 ft 450 kts 205°
2026-05-04 14:54 12.03694 119.83446 35883 ft 451 kts 205°
2026-05-04 14:55 11.98005 119.80743 35883 ft 451 kts 205°
2026-05-04 14:55 11.92323 119.78044 35885 ft 451 kts 205°
2026-05-04 14:56 11.86599 119.75325 35886 ft 450 kts 205°
2026-05-04 14:56 11.80910 119.72626 35884 ft 451 kts 204°
2026-05-04 14:57 11.75212 119.69926 35883 ft 451 kts 205°
2026-05-04 14:57 11.69494 119.67214 35883 ft 452 kts 204°
2026-05-04 14:58 11.63771 119.64551 35884 ft 452 kts 204°
2026-05-04 14:58 11.58994 119.62338 35856 ft 453 kts 204°
2026-05-04 14:59 11.55176 119.60569 35460 ft 450 kts 204°
2026-05-04 14:59 11.52325 119.59248 35165 ft 446 kts 204°
2026-05-04 14:59 11.46707 119.56641 34579 ft 442 kts 204°
2026-05-04 15:00 11.43923 119.55351 34264 ft 443 kts 204°
2026-05-04 15:00 11.41100 119.54041 33806 ft 445 kts 204°
2026-05-04 15:00 11.38267 119.52728 33234 ft 447 kts 204°
2026-05-04 15:01 11.32580 119.50093 31949 ft 450 kts 203°
2026-05-04 15:01 11.29741 119.48778 31265 ft 451 kts 204°
2026-05-04 15:01 11.26880 119.47454 30553 ft 453 kts 204°
2026-05-04 15:01 11.23984 119.46114 30024 ft 449 kts 204°
2026-05-04 15:02 11.21152 119.44804 29560 ft 445 kts 204°
2026-05-04 15:02 11.18349 119.43507 29119 ft 440 kts 204°
2026-05-04 15:02 11.15591 119.42232 28679 ft 436 kts 204°
2026-05-04 15:02 11.12832 119.40954 28216 ft 432 kts 204°
2026-05-04 15:03 11.10104 119.39692 27754 ft 428 kts 204°
2026-05-04 15:03 11.07391 119.38437 27275 ft 426 kts 204°
2026-05-04 15:03 11.04729 119.37206 26797 ft 423 kts 204°
2026-05-04 15:03 11.02043 119.35964 26314 ft 421 kts 204°
2026-05-04 15:04 10.99364 119.34727 25836 ft 418 kts 204°
2026-05-04 15:04 10.96746 119.33516 25365 ft 416 kts 204°
2026-05-04 15:04 10.94102 119.32294 24890 ft 413 kts 203°
2026-05-04 15:04 10.91484 119.31084 24382 ft 412 kts 203°
2026-05-04 15:05 10.88863 119.29875 23880 ft 410 kts 203°
2026-05-04 15:05 10.86277 119.28681 23392 ft 409 kts 203°
2026-05-04 15:05 10.83705 119.27494 22918 ft 407 kts 203°
2026-05-04 15:05 10.81129 119.26305 22441 ft 406 kts 203°
2026-05-04 15:06 10.78558 119.25119 21969 ft 405 kts 203°
2026-05-04 15:06 10.75969 119.23924 21507 ft 403 kts 203°
2026-05-04 15:06 10.73413 119.22744 21045 ft 401 kts 203°
2026-05-04 15:07 10.68359 119.20412 20138 ft 399 kts 202°
2026-05-04 15:07 10.65830 119.19247 19672 ft 398 kts 202°
2026-05-04 15:07 10.63314 119.18087 19214 ft 397 kts 202°
2026-05-04 15:07 10.60796 119.16927 18741 ft 396 kts 202°
2026-05-04 15:08 10.58296 119.15776 18275 ft 395 kts 202°
2026-05-04 15:08 10.55769 119.14613 17790 ft 394 kts 202°
2026-05-04 15:08 10.53285 119.13469 17321 ft 393 kts 202°
2026-05-04 15:08 10.50786 119.12318 16851 ft 392 kts 202°
2026-05-04 15:09 10.48310 119.11179 16394 ft 391 kts 202°
2026-05-04 15:09 10.45822 119.10034 15946 ft 389 kts 202°
2026-05-04 15:09 10.43342 119.08892 15410 ft 389 kts 202°
2026-05-04 15:10 10.38320 119.06587 13667 ft 407 kts 202°
2026-05-04 15:10 10.35741 119.05343 12721 ft 417 kts 206°
2026-05-04 15:10 10.30873 119.02090 11408 ft 416 kts 214°
2026-05-04 15:11 10.28576 119.00357 11037 ft 407 kts 215°
2026-05-04 15:11 10.26324 118.98648 10781 ft 389 kts 215°
2026-05-04 15:11 10.24214 118.97051 10538 ft 370 kts 215°
2026-05-04 15:11 10.22201 118.95533 10300 ft 353 kts 214°
2026-05-04 15:12 10.20248 118.94065 10058 ft 341 kts 214°
2026-05-04 15:12 10.18346 118.92641 9860 ft 336 kts 214°
2026-05-04 15:12 10.16519 118.91270 9719 ft 319 kts 214°
2026-05-04 15:12 10.14752 118.90010 9600 ft 303 kts 206°
2026-05-04 15:13 10.12759 118.89484 9478 ft 293 kts 175°
2026-05-04 15:13 10.10778 118.89897 9342 ft 289 kts 160°
2026-05-04 15:13 10.08851 118.90522 9159 ft 288 kts 160°
2026-05-04 15:13 10.06956 118.91123 8908 ft 287 kts 160°
2026-05-04 15:14 10.05030 118.91718 8594 ft 286 kts 161°
2026-05-04 15:14 10.03125 118.92294 8264 ft 286 kts 161°
2026-05-04 15:14 10.01202 118.92870 7908 ft 286 kts 161°
2026-05-04 15:14 9.99264 118.93447 7540 ft 287 kts 161°
2026-05-04 15:15 9.97343 118.94019 7181 ft 287 kts 161°
2026-05-04 15:15 9.95443 118.94584 6826 ft 287 kts 161°
2026-05-04 15:15 9.93506 118.95161 6461 ft 287 kts 161°
2026-05-04 15:16 9.89653 118.96308 5747 ft 287 kts 161°
2026-05-04 15:16 9.87749 118.96874 5385 ft 288 kts 161°
2026-05-04 15:16 9.83882 118.98025 4652 ft 288 kts 161°
2026-05-04 15:17 9.81939 118.98530 4281 ft 287 kts 169°
2026-05-04 15:17 9.78077 118.98601 3590 ft 267 kts 181°
2026-05-04 15:17 9.76257 118.98503 3501 ft 252 kts 181°
2026-05-04 15:18 9.74560 118.98238 3400 ft 244 kts 203°
2026-05-04 15:18 9.73329 118.97142 3299 ft 235 kts 244°
2026-05-04 15:18 9.73064 118.95596 3268 ft 219 kts 276°
2026-05-04 15:19 9.73405 118.92687 2972 ft 199 kts 276°
2026-05-04 15:19 9.73510 118.91313 2810 ft 190 kts 275°
2026-05-04 15:19 9.73653 118.88718 2322 ft 182 kts 274°
2026-05-04 15:20 9.73711 118.87455 2082 ft 174 kts 274°
2026-05-04 15:20 9.73763 118.86270 1842 ft 165 kts 274°
2026-05-04 15:20 9.73813 118.85118 1625 ft 163 kts 274°
2026-05-04 15:20 9.73862 118.83971 1413 ft 163 kts 274°
2026-05-04 15:21 9.73911 118.82825 1196 ft 162 kts 274°
2026-05-04 15:21 9.73961 118.81686 983 ft 161 kts 274°
2026-05-04 15:21 9.74059 118.79427 556 ft 159 kts 274°
2026-05-04 15:22 9.74102 118.78315 336 ft 158 kts 274°
2026-05-04 15:22 9.74149 118.77194 145 ft 158 kts 274°
2026-05-04 15:22 9.74226 118.75436 75 ft 53 kts 272°
2026-05-04 15:23 9.74265 118.75250 75 ft 11 kts 345°
2026-05-04 15:23 9.74341 118.75254 75 ft 8 kts
2026-05-04 15:23 9.74396 118.75244 75 ft 8 kts 314°
2026-05-04 15:23 9.74407 118.75185 75 ft 9 kts 272°
2026-05-04 15:24 9.74415 118.75073 75 ft 4 kts 300°
2026-05-04 15:24 9.74458 118.75063 75 ft 3 kts
2026-05-04 15:25 9.74474 118.75063 75 ft 2 kts
2026-05-04 15:25 9.74496 118.75063 75 ft 3 kts
2026-05-04 15:25 9.74505 118.75064 75 ft 0 kts